Flag for Austria Weather past 2 weeks in Hollabrunn, Lower Austria, Austria

Now
53 °F

Cool.


Feels Like: 51 °F
Forecast: 41 / 52 °F
Wind: 6 mph from Southwest

Location: Retz

Current Time: Mar 29, 2015 at 7:06:45 PM

Latest Report: Mar 29, 2015 at 6:00 PM


Visibility: N/A

Pressure: 29.66 "Hg

Humidity: 77%

Dew point: 46 °F

Location of HollabrunnLocation

Historic Weather in Hollabrunn — Graph

°F

Hollabrunn temperature yesterday

Maximum temperature yesterday: 47 °F (at 2:00 PM)
Minimum temperature yesterday: 41 °F (at 1:00 AM)
Average temperature yesterday: 44 °F

Past Weeks' High & Low Weather Summary

 TemperatureHumidityPressure
High60 °F (Mar 26, 3:00 PM)99% (Mar 15, 3:00 AM)30.53 "Hg (Mar 15, 3:00 AM)
Low30 °F (Mar 23, 6:00 AM)37% (Mar 21, 4:00 PM)29.67 "Hg (Mar 29, 5:00 PM)
Average45 °F69%30.11 "Hg
* Reported Mar 14 4:00 PM — Mar 29 5:00 PM, Hollabrunn, Weather by CustomWeather, © 2015

Note: Actual official high and low records may vary slightly from our data, if they occured in-between our weather recording intervals... More about our weather records

Advertising

Hollabrunn weather history for previous 24 hours

 ConditionsComfort  
Time TempWeatherWind HumidityBarometerVisibility
5:00 PM
Sun, Mar 29
54 °FCool.7 mph71%29.67 "HgN/A
4:00 PM56 °FCool.8 mph62%29.69 "HgN/A
3:00 PM57 °FCool.8 mph60%29.69 "HgN/A
2:00 PM56 °FOvercast.7 mph63%29.72 "Hg25 mi
1:00 PM53 °FCool.1 mph73%29.76 "HgN/A
12:00 PM51 °FCool.2 mph74%29.79 "HgN/A
11:00 AM47 °FCool.2 mph79%29.83 "HgN/A
10:00 AM43 °FQuite cool.3 mph82%29.86 "HgN/A
9:00 AM38 °FChilly.3 mph88%29.89 "HgN/A
8:00 AM37 °FOvercast.3 mph91%29.92 "Hg8 mi
7:00 AM37 °FOvercast.2 mph85%29.93 "Hg5 mi
6:00 AM37 °FChilly.2 mph79%29.94 "HgN/A
5:00 AM36 °FChilly.1 mph72%29.95 "HgN/A
4:00 AM40 °FQuite cool.3 mph59%29.96 "HgN/A
3:00 AM38 °FChilly.3 mph64%29.99 "HgN/A
1:00 AM41 °FQuite cool.2 mph55%29.99 "HgN/A
12:00 AM42 °FQuite cool.3 mph54%30.01 "HgN/A
11:00 PM
Sat, Mar 28
41 °FQuite cool.5 mph58%30.03 "HgN/A
9:00 PM42 °FQuite cool.3 mph63%30.06 "HgN/A
8:00 PM42 °FQuite cool.3 mph62%30.07 "HgN/A
7:00 PM43 °FPassing clouds.2 mph57%30.06 "Hg9 mi
Weather by CustomWeather, © 2015

See weather overviewHow to use our weather pages